INMARSAT 4-F2

Last updated on Thu Nov 21 2024 00:02:40 GMT+0000 (Coordinated Universal Time)

1 28899U 05044A 24325.18081347 -.00000260 00000+0 00000+0 0 9994 2 28899 4.3678 42.9445 0003461 207.4731 17.8605 1.00271020 69760
UTC large
Height (km)
Speed (km/s)
/
Latitude / Longitude
Inclination (degrees)
Orbital Period (minutes)
Azimuth
Elevation
Range (km)
Doppler Factor

Next 0 passes for location: London (51.5072 / 0.1276)

Sorry there are no passes over London.